STARLINK-34462

Last updated on Thu Jul 03 2025 00:02:07 GMT+0000 (Coordinated Universal Time)

1 64493U 25133X 25183.58335648 -.01258495 00000+0 -61965-2 0 9995 2 64493 53.1549 210.7523 0001016 55.2065 329.9008 15.84080579 2725
UTC large
Height (km)
Speed (km/s)
/
Latitude / Longitude
Inclination (degrees)
Orbital Period (minutes)
Azimuth
Elevation
Range (km)
Doppler Factor

Next 0 passes for location: London (51.5072 / 0.1276)

Sorry there are no passes over London.